Theta_e
319 321 331 336 338 333 338 339 336 344 344 342 345 343 340 343 342 342 340 335 331 325 320 320 321 321 323 323 326 327 325 325 325 325 324 323 322 322 321 333 330 321 333 334 325 325 325 324 330
319 329 333 336 336 338 339 336 338 340 340 341 342 340 341 345 345 342 337 334 329 323 319 321 321 322 324 325 327 325 324 324 325 325 323 322 322 323 323 321 320 320 329 332 325 323 323 326 331
322 329 333 333 335 338 339 338 344 340 343 344 338 339 341 344 344 340 339 339 332 323 320 321 321 324 325 326 327 324 323 324 325 324 324 323 322 322 324 322 320 319 322 326 325 324 324 326 330
327 329 333 330 335 335 338 337 344 341 341 341 339 339 342 343 342 340 340 343 335 322 320 321 322 324 325 326 326 323 323 324 325 327 326 323 322 320 322 325 321 321 322 324 325 325 326 327 329
326 327 329 335 338 336 335 339 343 341 342 339 338 339 342 344 343 342 336 340 333 320 321 320 323 325 325 326 326 323 323 325 327 330 327 322 324 325 320 324 324 321 322 323 325 329 332 333 334
326 326 325 332 334 336 336 340 340 341 340 340 339 339 341 343 344 342 333 333 327 320 321 320 323 325 326 326 326 323 323 326 330 332 325 322 326 326 326 321 325 325 323 323 325 328 331 334 335
322 319 324 330 337 334 338 337 340 341 343 342 338 338 340 341 344 339 333 329 324 320 321 320 324 325 326 326 326 323 323 327 333 330 326 326 327 327 327 326 321 324 327 328 329 328 330 335 335
327 318 324 328 331 337 335 340 341 342 343 341 338 339 341 342 341 336 332 328 323 320 321 320 324 325 326 326 326 324 323 327 334 331 327 327 328 328 326 327 327 323 326 328 329 330 331 334 334
323 317 320 324 333 336 335 335 343 343 344 340 340 343 338 341 339 334 330 327 322 319 321 320 322 325 325 326 327 324 323 328 335 333 333 330 331 328 327 327 327 326 324 324 326 328 332 333 332
319 316 320 320 330 334 333 334 343 344 344 343 343 342 339 339 337 330 326 323 320 319 320 320 320 324 325 326 326 325 323 326 335 335 335 335 332 329 330 331 331 331 330 326 325 325 326 329 332
317 318 318 321 323 324 324 325 333 343 343 343 342 342 339 339 337 330 322 327 329 324 320 320 320 321 324 325 325 325 323 325 334 333 334 335 335 333 331 331 331 332 333 332 332 334 334 334 332
320 319 320 321 322 321 321 322 334 341 339 341 343 343 339 339 337 335 334 335 335 326 320 320 320 320 320 323 323 323 324 324 330 334 331 332 334 337 335 332 332 332 330 331 332 331 332 332 331
318 318 320 321 321 320 320 326 332 341 339 340 344 341 338 338 336 336 335 334 336 330 330 324 320 320 320 320 321 322 326 324 325 333 334 335 334 335 336 335 335 333 332 332 331 330 330 331 331
319 319 319 320 322 321 331 334 337 338 339 342 342 340 338 338 336 336 335 335 335 335 333 331 325 320 320 320 321 324 330 326 326 331 334 336 333 335 337 336 336 334 333 333 333 332 331 330 331
318 319 317 320 322 330 335 336 335 338 341 341 340 338 338 337 337 336 335 335 335 335 335 333 332 330 330 329 324 329 331 331 332 333 336 338 334 336 336 336 336 335 333 333 334 333 333 332 331
319 316 318 319 320 334 334 336 334 339 341 339 338 338 337 337 337 336 336 336 336 336 335 335 333 333 332 332 331 330 331 331 332 333 334 336 338 337 339 338 338 335 334 335 335 334 333 333 332
313 317 319 322 319 328 329 329 332 342 342 340 338 337 337 337 337 337 337 337 336 336 335 335 334 333 333 333 332 332 332 331 331 332 334 334 336 338 339 340 340 338 335 336 337 335 334 333 333
316 319 319 320 320 319 323 327 331 342 343 342 340 339 338 337 335 337 338 338 337 337 336 334 334 334 333 333 332 332 332 332 332 332 333 333 334 336 338 340 340 339 335 335 337 336 335 335 335
317 319 319 318 318 319 319 317 320 334 342 342 342 342 340 338 334 335 338 338 337 337 337 336 334 334 334 333 333 332 332 332 332 333 332 332 333 333 335 338 341 340 337 334 337 337 337 335 336
317 318 317 316 317 319 319 320 327 330 338 341 341 341 342 340 338 336 336 338 338 337 337 337 335 333 333 333 333 333 332 332 332 333 333 332 332 333 334 337 340 341 341 338 338 337 337 336 336
316 316 317 318 316 317 320 318 321 333 333 336 339 340 340 340 339 338 337 336 339 338 336 336 335 334 333 333 333 333 333 332 333 333 333 333 333 333 333 335 338 340 340 340 337 335 337 336 336
316 314 317 318 317 318 317 318 316 322 331 333 334 335 335 337 337 337 337 338 337 336 338 336 335 334 334 333 333 333 332 332 332 332 332 332 333 333 332 334 337 339 339 341 335 333 333 336 336
317 315 316 317 315 317 318 316 317 325 336 341 342 340 333 335 336 336 336 336 337 336 336 337 337 334 333 333 333 333 332 333 332 333 333 334 333 333 332 334 336 339 339 339 336 334 333 337 337
318 318 314 312 312 317 318 317 321 332 339 345 341 342 342 337 336 337 336 336 336 335 335 335 334 334 334 333 332 332 333 333 333 333 334 334 334 332 333 335 337 337 338 338 337 336 335 334 334
316 315 316 318 317 319 318 333 336 341 346 343 337 334 335 341 340 340 339 338 337 335 334 333 333 333 333 333 332 332 333 333 334 335 335 335 336 335 335 335 334 337 339 339 338 337 335 336 337
316 315 316 321 319 319 320 337 341 342 341 337 333 332 331 333 333 332 336 338 340 340 339 337 335 335 336 336 334 332 333 335 336 336 337 339 337 335 335 331 338 338 339 339 338 336 335 335 337
318 317 315 316 315 317 322 333 333 336 338 339 337 335 332 330 331 336 341 342 343 342 340 337 337 339 341 341 340 337 335 336 337 338 337 338 337 332 331 334 336 332 338 337 336 334 335 334 333
318 316 319 315 319 322 329 333 336 337 337 338 336 334 331 332 336 340 342 342 340 337 336 341 345 346 345 343 342 341 340 339 338 338 336 332 328 329 332 332 331 333 334 335 336 334 333 332 331
318 318 315 315 316 319 329 336 334 335 335 337 337 337 338 341 343 343 342 340 339 339 339 343 346 346 346 345 345 343 342 341 335 332 332 330 329 331 333 334 335 335 333 332 330 332 330 328 326
318 317 316 318 320 320 329 335 335 333 333 336 340 343 341 340 341 340 339 337 337 337 340 342 342 343 343 341 342 342 341 339 337 335 333 335 335 334 335 332 329 329 328 326 324 322 324 322 320
Wind_Speed
2 2 4 1 3 5 3 3 1 1 5 2 17 7 7 3 2 3 16 21 22 20 20 19 17 15 14 14 12 10 9 9 9 9 9 8 8 7 7 7 7 10 10 9 9 9 9 9 9
2 2 3 1 5 5 5 4 3 1 2 15 12 7 4 1 1 9 24 22 21 20 21 20 17 15 15 14 11 9 9 9 9 9 9 9 8 8 8 8 7 10 11 10 10 10 9 9 9
3 2 2 4 3 2 4 2 4 7 8 2 3 4 2 1 5 26 22 23 23 21 21 19 17 16 15 13 11 9 9 9 10 9 9 10 9 9 9 9 10 11 12 11 11 10 9 8 7
3 2 4 4 2 4 3 3 6 5 3 5 9 6 4 3 21 17 22 23 23 22 21 19 17 16 15 13 11 9 9 10 10 10 10 10 11 11 10 10 10 11 13 13 13 11 10 10 8
1 3 4 3 4 4 3 4 18 5 2 6 3 3 4 12 12 20 19 23 23 23 22 19 17 16 15 14 12 9 9 11 11 11 10 10 12 13 11 10 11 11 12 13 13 12 11 11 10
3 3 4 1 4 4 3 11 7 6 5 5 5 6 6 9 16 19 19 21 22 22 21 19 18 17 16 13 11 9 9 11 11 11 10 11 12 13 13 11 10 10 10 12 11 11 11 10 10
5 4 3 2 3 4 1 14 9 8 7 2 13 4 3 14 18 21 20 21 22 22 21 19 18 17 15 13 11 9 9 11 12 12 14 15 14 12 11 11 10 10 10 9 10 9 10 9 9
2 4 2 3 2 3 3 3 7 6 3 5 10 5 6 22 24 22 22 22 22 22 21 19 18 18 15 14 11 9 9 11 12 13 15 15 13 11 10 10 10 10 10 9 9 9 9 10 7
3 4 1 3 2 2 3 4 2 1 8 8 8 5 9 28 25 23 24 24 24 23 22 19 18 17 15 14 12 10 9 12 13 12 13 13 12 12 12 11 10 10 10 9 9 8 9 9 6
4 3 5 4 3 0 1 2 11 4 4 8 7 7 20 29 26 25 27 27 25 25 23 20 19 17 16 14 13 12 11 12 13 12 11 10 11 11 12 13 12 11 10 10 8 6 7 6 3
4 5 5 4 8 8 6 5 10 11 4 14 16 16 31 30 27 25 25 22 18 20 23 22 20 18 16 15 14 14 13 13 14 12 13 12 10 9 10 11 11 9 8 6 8 3 3 2 1
2 6 6 5 7 6 4 5 7 19 19 8 18 19 35 33 30 29 26 23 20 18 19 22 21 19 17 16 16 14 14 14 15 12 12 12 9 7 8 10 9 9 9 11 9 8 6 4 4
4 4 5 8 17 18 10 10 8 20 18 12 16 26 34 33 29 27 23 20 20 20 19 19 23 21 19 19 17 17 14 15 15 15 13 12 10 10 8 9 8 10 8 9 10 7 9 10 6
4 6 10 8 11 5 2 1 11 15 16 11 19 29 33 31 29 27 29 27 25 22 21 21 20 21 20 20 20 18 15 14 17 16 14 13 12 11 11 11 10 10 10 9 9 9 7 10 10
2 5 7 3 1 2 11 1 8 6 16 18 23 27 32 30 30 31 27 28 27 26 24 23 21 20 21 20 21 21 17 15 18 16 16 14 15 13 12 11 10 11 12 10 10 9 10 10 13
2 4 4 5 4 4 4 8 2 9 22 23 26 29 30 32 35 31 31 28 27 28 29 26 26 25 23 22 21 23 21 19 19 19 17 17 17 17 16 15 12 11 14 15 12 11 12 13 13
6 2 3 5 4 4 3 6 4 17 24 24 27 30 33 33 35 36 34 30 28 28 29 31 31 30 28 25 24 25 23 23 22 21 21 20 19 19 18 15 12 13 14 17 13 14 12 13 13
4 3 3 4 3 6 3 9 4 17 27 28 28 31 33 35 38 37 36 35 33 30 30 30 33 32 30 30 30 29 28 28 26 25 23 23 23 20 20 18 14 16 16 19 18 18 16 16 16
2 0 2 4 4 2 4 7 10 13 18 20 29 33 36 37 32 33 37 37 36 36 35 36 35 36 36 36 35 34 33 31 31 30 27 26 25 23 21 22 18 18 19 19 20 18 19 19 20
2 1 5 7 2 3 2 9 3 5 16 27 22 25 37 38 35 33 36 38 40 39 38 37 37 36 38 38 37 38 35 34 33 31 30 29 28 27 24 23 22 22 23 23 20 21 24 23 22
3 5 4 6 7 5 4 7 6 4 5 14 24 27 33 39 35 36 35 35 40 43 41 40 38 37 36 38 40 41 40 39 36 33 31 32 32 29 28 27 26 26 27 26 21 22 22 25 20
4 9 6 3 4 4 2 4 7 12 9 5 15 17 28 37 34 33 34 36 38 42 45 43 43 42 41 42 42 42 43 42 39 35 32 32 33 32 31 32 31 33 31 28 22 24 28 29 32
8 7 8 5 4 2 4 4 7 7 11 18 23 29 30 33 36 35 33 31 31 36 44 46 45 46 46 46 46 45 45 43 41 38 36 35 36 37 35 36 34 36 34 35 31 26 23 23 25
3 4 7 5 4 2 4 3 6 6 8 17 24 26 20 8 12 14 16 20 24 23 26 33 37 40 43 44 45 46 44 43 41 37 35 31 27 26 33 38 38 39 38 36 30 35 27 32 33
5 6 3 2 2 4 1 7 4 7 10 8 14 21 22 19 15 11 8 6 9 9 16 21 24 26 26 29 35 38 42 43 32 27 31 29 25 24 27 28 37 40 31 34 32 25 24 24 22
6 7 5 4 4 4 4 3 4 4 8 13 14 17 22 21 20 23 20 17 14 10 6 8 14 17 16 17 21 25 31 25 21 19 11 12 12 20 29 35 37 42 31 32 26 18 21 20 15
4 3 3 8 2 3 3 1 4 2 6 17 22 25 26 24 24 22 22 23 24 22 20 16 11 10 10 10 13 17 19 20 20 16 14 17 22 38 23 16 22 26 17 16 14 22 18 10 8
4 5 3 4 4 3 3 2 3 6 8 11 16 22 20 21 23 23 24 24 25 22 20 16 15 15 10 5 7 8 10 13 13 13 12 14 9 13 14 14 20 19 15 15 14 8 7 7 5
2 1 7 5 4 6 4 4 4 4 4 6 9 14 17 20 22 22 22 23 22 20 20 19 16 12 7 7 2 5 14 16 9 8 8 8 10 9 8 9 9 4 3 3 4 7 11 10 10
3 5 5 5 3 2 4 4 3 5 5 4 5 8 12 15 16 16 19 21 21 21 21 18 14 10 9 6 7 9 9 15 18 8 2 4 1 3 4 12 13 12 15 16 12 9 10 8 8
Wind_Direction
75 20 4 68 59 62 348 328 229 84 326 80 159 180 178 123 188 213 150 156 160 156 154 152 148 151 149 144 136 124 121 120 112 102 94 86 82 83 94 105 115 145 140 135 146 144 139 135 126
98 47 30 63 79 51 297 289 1 280 80 102 110 98 59 95 178 156 151 153 160 157 155 151 150 152 150 147 137 129 125 112 102 94 87 83 85 88 92 100 115 144 146 139 139 142 142 131 123
98 78 34 85 95 160 233 268 110 122 65 68 91 83 87 190 177 152 156 156 161 162 156 153 154 156 153 148 143 134 119 111 106 100 94 89 92 96 98 98 109 133 144 137 135 134 132 129 132
102 92 67 80 217 254 238 315 131 132 141 170 144 89 85 326 151 151 155 162 164 165 157 156 159 158 156 153 149 133 125 117 110 102 93 94 98 99 105 103 108 123 136 138 136 134 133 138 138
100 59 56 63 275 272 256 220 151 160 141 163 142 127 99 132 153 155 157 164 169 167 159 161 161 162 161 161 147 138 128 116 108 98 90 95 104 103 100 106 111 119 130 135 138 135 132 135 130
74 63 58 265 266 253 258 181 183 154 161 145 111 105 163 173 161 161 165 167 172 169 163 164 166 168 166 161 144 142 127 118 119 104 95 99 106 112 107 107 116 121 132 137 141 140 140 141 126
117 85 191 213 265 303 233 176 185 158 153 158 150 114 194 181 176 163 170 171 173 173 168 170 171 172 171 159 153 146 134 131 129 108 101 103 103 104 113 113 117 128 134 139 140 145 147 145 121
120 97 127 244 261 290 312 153 173 148 130 152 165 180 192 176 172 169 173 174 174 176 175 175 178 178 173 165 162 160 149 146 143 122 110 105 98 95 113 118 114 119 127 137 138 143 142 147 132
141 66 220 247 194 339 84 82 122 102 132 164 198 250 196 169 172 173 175 177 179 182 181 182 186 182 179 174 173 174 165 161 156 146 125 118 108 106 112 114 111 111 118 129 139 147 143 143 140
110 114 214 228 221 233 276 179 177 174 163 204 208 223 178 173 174 175 178 179 183 185 185 189 190 188 188 184 186 186 183 179 169 164 148 143 134 123 126 125 121 117 122 131 136 139 137 142 166
160 187 200 231 235 278 290 274 218 159 219 214 196 191 178 175 178 177 175 174 174 185 190 194 195 194 196 195 197 198 194 191 180 175 175 162 155 147 152 143 147 147 145 150 156 173 202 203 196
156 231 231 269 285 286 228 251 191 192 226 275 224 210 180 181 183 182 183 184 185 182 189 198 200 201 202 201 204 207 204 200 194 191 186 185 180 169 178 181 177 181 187 190 192 201 224 232 280
182 244 244 275 296 285 269 229 207 205 220 266 206 191 188 187 186 188 188 190 191 191 186 196 203 205 207 208 208 207 208 211 205 204 207 199 204 198 191 185 199 211 213 213 220 231 234 227 248
224 243 276 288 279 269 128 277 171 214 200 189 190 192 193 195 192 191 199 202 203 201 200 196 199 206 210 216 216 211 213 212 209 208 212 211 203 197 210 213 223 225 227 234 238 237 234 233 227
268 312 341 310 309 43 116 342 237 194 190 179 193 199 201 205 203 202 198 208 212 212 210 209 205 206 213 218 219 215 218 217 211 213 212 215 212 214 219 227 232 231 229 236 247 247 241 239 237
43 46 7 294 327 143 80 263 57 203 176 184 198 205 208 213 214 212 211 212 217 224 224 219 217 218 218 220 222 223 225 224 221 220 219 223 223 224 229 233 242 238 242 238 241 252 248 252 250
0 188 223 326 350 129 91 275 253 182 188 194 202 211 216 221 225 222 219 221 222 227 229 229 226 228 227 227 225 226 232 233 231 231 231 230 231 229 231 234 243 241 246 232 245 243 251 252 257
217 193 230 182 305 21 255 260 250 202 191 201 208 215 222 225 226 228 229 226 229 231 235 238 236 236 237 235 232 230 232 237 237 236 240 241 241 243 244 243 245 243 246 237 241 245 250 255 257
169 211 281 182 250 253 224 268 264 215 207 213 216 215 224 230 236 230 232 236 234 236 238 239 240 239 239 239 238 239 241 243 242 242 243 241 242 246 247 248 243 247 247 247 249 249 241 252 259
131 283 286 290 179 209 345 299 245 200 225 219 218 223 228 238 239 240 237 237 242 243 244 242 242 243 242 244 246 245 250 251 251 253 254 252 250 247 252 249 247 245 250 248 253 262 256 243 251
197 180 226 228 344 355 10 318 339 343 278 237 231 237 239 244 245 244 245 244 246 247 249 251 251 248 248 250 248 247 248 251 252 255 258 257 254 255 257 254 252 252 253 251 257 270 269 265 254
259 203 196 164 72 226 65 259 31 336 335 329 327 290 264 257 257 260 259 257 253 252 250 250 251 255 255 252 251 254 258 257 262 266 269 270 264 262 265 262 257 255 258 259 258 268 263 264 262
228 156 175 161 163 98 308 91 306 352 342 339 341 321 299 279 268 267 270 278 278 267 261 258 257 255 255 255 254 251 254 256 258 261 264 268 266 263 262 261 258 257 255 260 269 282 266 275 280
131 79 46 54 85 53 264 119 331 358 320 326 338 343 360 289 260 277 284 282 282 276 272 268 267 265 261 256 253 251 249 247 249 251 255 261 271 277 267 264 263 262 260 260 281 269 280 279 273
104 70 30 20 30 198 40 58 228 328 357 2 346 354 28 52 63 52 20 320 282 267 258 262 269 271 270 268 263 254 250 245 246 255 255 256 259 265 274 275 273 269 261 266 270 276 278 283 278
163 159 148 166 177 213 26 73 315 1 327 358 4 14 25 38 47 51 45 47 47 41 15 303 283 275 280 278 264 251 246 239 240 247 270 260 282 312 307 255 266 254 268 266 263 266 289 283 260
169 167 161 106 356 81 135 58 272 303 334 354 352 7 14 22 38 46 49 46 43 40 35 22 355 337 315 272 259 256 246 226 217 214 221 239 268 286 280 258 245 305 275 278 267 277 291 245 251
131 152 76 10 118 135 26 80 224 341 337 343 357 1 15 39 48 50 46 41 36 30 27 29 40 49 38 349 305 283 250 222 218 227 248 281 303 265 271 279 233 272 278 281 280 275 264 238 184
111 93 53 110 106 150 143 249 233 256 308 324 356 42 40 43 43 43 45 45 40 41 46 51 50 47 50 38 2 211 195 198 222 309 289 268 312 296 278 262 248 249 105 133 104 97 97 104 109
142 142 129 123 207 70 121 231 247 252 335 338 38 50 55 58 53 49 51 52 53 53 65 72 71 78 89 92 129 161 185 260 272 270 339 54 128 56 182 111 103 106 101 98 98 99 105 99 77